User: anonymous   Login
Location: Castro Valley
(37.6940°N, 122.0850°W)
Time: 15:15:30
(UTC-07:00)
Language:

PANSAT - Orbit

View from above orbital plane
View from above orbital plane
View from above satellite
View from above satellite

Ground track
Ground track

The orbit data is extracted from the following two-line orbital elements,

1 25520U 98064B   16180.51041179  .00000909  00000-0  24694-4 0  9992
2 25520  28.4565 232.1621 0005436  45.9040 314.2002 15.27740360980131
Epoch (UTC): 28 June 2016 12:14:59
Eccentricity: 0.0005436
inclination: 28.4565°
perigee height: 479 km
apogee height: 486 km
right ascension of ascending node: 232.1621°
argument of perigee: 45.9040°
revolutions per day: 15.27740360
mean anomaly at epoch: 314.2002°
orbit number at epoch: 98013

The dashed part of the orbit path shows where the satellite is in the earth's shadow,  

DLR